Weather History for KRZL - December, 2012

Change the Weather History Date:

Monday, December 24, 2012

  Actual Average (KVPZ) Record (KVPZ)
Temperature  
Mean Temperature 30 °F 26 °F  
Max Temperature 33 °F 32 °F 43 °F (2006)
Min Temperature 26 °F 19 °F -5 °F (2004)
Degree Days  
Heating Degree Days 36 39  
Month to date heating degree days 863  
Since 1 July heating degree days 2121  
Cooling Degree Days 0 0  
Month to date cooling degree days 0  
Year to date cooling degree days 713  
Moisture  
Dew Point 29 °F    
Average Humidity 93    
Maximum Humidity 100    
Minimum Humidity 86    
Precipitation  
Precipitation 0.00 in 0.06 in 0.33 in (2014)
Month to date precipitation 1.73  
Year to date precipitation 37.06  
Sea Level Pressure  
Sea Level Pressure 29.90 in    
Wind  
Wind Speed 8 mph (NNW)    
Max Wind Speed 13 mph    
Max Gust Speed 16 mph    
Visibility 8 miles    
Events      
T = Trace of Precipitation, MM = Missing Value Source: NWS Daily Summary

Daily Weather History Graph

Daily Weather History Graph

Search for Another Location

Airport or City:

Trip Planner

Search our weather history database for the weather conditions in past years. The results will help you decide how hot, cold, wet, or windy it might be!

Date:

Astronomy

Dec. 24, 2012 Rise Set
Actual Time 7:11 AM CST 4:25 PM CST
Civil Twilight 6:40 AM CST 4:56 PM CST
Nautical Twilight 6:05 AM CST 5:31 PM CST
Astronomical Twilight 5:32 AM CST 6:04 PM CST
Moon 1:53 PM CST (12/24) 3:49 AM CST (12/24)
Length of Visible Light 10h 16m
Length of Day
9h 14m
Waxing Gibbous, 88% of the Moon is Illuminated
Dec 24
Waxing Gibbous
Dec 28
Full
Jan 4
Last Quarter
Jan 11
New
Jan 18
First Quarter

Hourly Weather History & Observations

Time (CST) Temp. Windchill Dew Point Humidity Pressure Visibility Wind Dir Wind Speed Gust Speed Precip Events Conditions
12:15 AM 30.2 °F 21.9 °F 28.4 °F 93% 29.94 in 10.0 mi NE 9.2 mph - N/A   Clear
12:35 AM 30.2 °F 21.3 °F 28.4 °F 93% 29.93 in 10.0 mi NE 10.4 mph - N/A   Clear
12:55 AM 30.2 °F 21.3 °F 28.4 °F 93% 29.93 in 10.0 mi NE 10.4 mph - N/A   Clear
1:15 AM 30.2 °F 21.3 °F 26.6 °F 86% 29.92 in 10.0 mi ENE 10.4 mph - N/A   Clear
1:35 AM 30.2 °F 22.6 °F 26.6 °F 86% 29.93 in 10.0 mi ENE 8.1 mph - N/A   Clear
1:55 AM 30.2 °F 21.3 °F 26.6 °F 86% 29.91 in 10.0 mi ENE 10.4 mph - N/A   Clear
2:15 AM 30.2 °F 20.2 °F 26.6 °F 86% 29.90 in 10.0 mi ENE 12.7 mph - N/A   Clear
2:35 AM 28.4 °F 19.7 °F 26.6 °F 93% 29.90 in 10.0 mi ENE 9.2 mph - N/A   Clear
2:55 AM 28.4 °F 19.7 °F 26.6 °F 93% 29.89 in 10.0 mi ENE 9.2 mph - N/A   Clear
3:15 AM 28.4 °F 19.1 °F 26.6 °F 93% 29.86 in 10.0 mi ENE 10.4 mph - N/A   Clear
3:35 AM 28.4 °F 19.7 °F 26.6 °F 93% 29.86 in 10.0 mi East 9.2 mph - N/A   Clear
3:55 AM 28.4 °F 21.2 °F 26.6 °F 93% 29.85 in 10.0 mi ENE 6.9 mph - N/A   Clear
4:15 AM 28.4 °F 20.4 °F 26.6 °F 93% 29.84 in 10.0 mi ENE 8.1 mph - N/A   Clear
4:35 AM 28.4 °F 20.4 °F 26.6 °F 93% 29.83 in 10.0 mi East 8.1 mph - N/A   Clear
4:55 AM 28.4 °F 20.4 °F 26.6 °F 93% 29.83 in 10.0 mi ENE 8.1 mph - N/A   Clear
5:15 AM 28.4 °F 21.2 °F 26.6 °F 93% 29.83 in 10.0 mi ENE 6.9 mph - N/A   Clear
5:35 AM 28.4 °F 21.2 °F 26.6 °F 93% 29.83 in 7.0 mi ENE 6.9 mph - N/A   Clear
5:55 AM 28.4 °F 22.2 °F 26.6 °F 93% 29.84 in 7.0 mi NNE 5.8 mph - N/A   Clear
6:15 AM 26.6 °F 18.2 °F 26.6 °F 100% 29.82 in 7.0 mi ENE 8.1 mph - N/A   Clear
6:35 AM 28.4 °F 21.2 °F 26.6 °F 93% 29.83 in 7.0 mi NE 6.9 mph - N/A   Clear
6:55 AM 26.6 °F 20.0 °F 26.6 °F 100% 29.83 in 7.0 mi NE 5.8 mph - N/A   Clear
7:15 AM 28.4 °F 22.2 °F 26.6 °F 93% 29.83 in 7.0 mi North 5.8 mph - N/A   Mostly Cloudy
7:35 AM 28.4 °F 21.2 °F 26.6 °F 93% 29.84 in 7.0 mi North 6.9 mph - N/A   Overcast
7:55 AM 28.4 °F 22.2 °F 26.6 °F 93% 29.84 in 7.0 mi North 5.8 mph - N/A   Mostly Cloudy
8:15 AM 28.4 °F 21.2 °F 28.4 °F 100% 29.83 in 7.0 mi North 6.9 mph - N/A   Overcast
8:35 AM 28.4 °F 20.4 °F 28.4 °F 100% 29.84 in 7.0 mi North 8.1 mph - N/A   Overcast
8:55 AM 30.2 °F 22.6 °F 28.4 °F 93% 29.86 in 7.0 mi North 8.1 mph - N/A   Overcast
9:15 AM 30.2 °F 21.9 °F 28.4 °F 93% 29.86 in 7.0 mi North 9.2 mph - N/A   Overcast
9:35 AM 30.2 °F 23.4 °F 28.4 °F 93% 29.85 in 7.0 mi North 6.9 mph - N/A   Overcast
9:55 AM 30.2 °F 24.3 °F 28.4 °F 93% 29.85 in 10.0 mi NNE 5.8 mph - N/A   Mostly Cloudy
10:15 AM 30.2 °F 24.3 °F 28.4 °F 93% 29.86 in 7.0 mi North 5.8 mph - N/A   Mostly Cloudy
10:35 AM 30.2 °F 25.4 °F 28.4 °F 93% 29.85 in 7.0 mi North 4.6 mph - N/A   Mostly Cloudy
10:55 AM 32.0 °F 27.5 °F 30.2 °F 93% 29.85 in 7.0 mi NNW 4.6 mph - N/A   Mostly Cloudy
11:15 AM 32.0 °F 24.8 °F 28.4 °F 87% 29.85 in 7.0 mi NW 8.1 mph - N/A   Overcast
11:35 AM 32.0 °F 25.6 °F 30.2 °F 93% 29.84 in 7.0 mi NW 6.9 mph - N/A   Overcast
11:55 AM 32.0 °F 25.6 °F 30.2 °F 93% 29.83 in 7.0 mi NW 6.9 mph - N/A   Overcast
12:15 PM 32.0 °F 25.6 °F 30.2 °F 93% 29.83 in 7.0 mi WNW 6.9 mph - N/A   Overcast
12:35 PM 32.0 °F 24.2 °F 30.2 °F 93% 29.83 in 7.0 mi NW 9.2 mph - N/A   Overcast
12:55 PM 32.0 °F 24.8 °F 30.2 °F 93% 29.83 in 7.0 mi NW 8.1 mph - N/A   Overcast
1:15 PM 32.0 °F 24.2 °F 30.2 °F 93% 29.82 in 7.0 mi NW 9.2 mph - N/A   Overcast
1:35 PM 32.0 °F 25.6 °F 30.2 °F 93% 29.83 in 7.0 mi NNW 6.9 mph - N/A   Overcast
1:55 PM 32.0 °F 27.5 °F 30.2 °F 93% 29.83 in 7.0 mi NNW 4.6 mph - N/A   Overcast
2:15 PM 32.0 °F 28.7 °F 30.2 °F 93% 29.83 in 7.0 mi NW 3.5 mph - N/A   Overcast
2:35 PM 32.0 °F 27.5 °F 30.2 °F 93% 29.85 in 7.0 mi WNW 4.6 mph - N/A   Overcast
2:55 PM 32.0 °F 28.7 °F 30.2 °F 93% 29.86 in 7.0 mi NW 3.5 mph - N/A   Overcast
3:15 PM 32.0 °F 27.5 °F 30.2 °F 93% 29.87 in 7.0 mi NW 4.6 mph - N/A   Overcast
3:35 PM 33.8 °F 30.8 °F 30.2 °F 87% 29.88 in 7.0 mi WNW 3.5 mph - N/A   Overcast
3:55 PM 32.0 °F 25.6 °F 32.0 °F 100% 29.89 in 5.0 mi West 6.9 mph - N/A   Overcast
4:15 PM 32.0 °F 25.6 °F 32.0 °F 100% 29.90 in 7.0 mi West 6.9 mph - N/A   Overcast
4:35 PM 32.0 °F 24.8 °F 32.0 °F 100% 29.91 in 7.0 mi West 8.1 mph - N/A   Overcast
4:55 PM 32.0 °F 24.8 °F 32.0 °F 100% 29.91 in 7.0 mi West 8.1 mph - N/A   Overcast
5:15 PM 32.0 °F 24.2 °F 32.0 °F 100% 29.92 in 7.0 mi West 9.2 mph - N/A   Overcast
5:35 PM 32.0 °F 24.8 °F 32.0 °F 100% 29.92 in 7.0 mi West 8.1 mph - N/A   Overcast
5:55 PM 32.0 °F 24.8 °F 32.0 °F 100% 29.92 in 7.0 mi WNW 8.1 mph - N/A   Overcast
6:15 PM 32.0 °F 24.8 °F 32.0 °F 100% 29.93 in 7.0 mi WNW 8.1 mph - N/A   Overcast
6:35 PM 32.0 °F 26.4 °F 32.0 °F 100% 29.94 in 10.0 mi WNW 5.8 mph - N/A   Overcast
6:55 PM 32.0 °F 24.8 °F 30.2 °F 93% 29.95 in 10.0 mi NW 8.1 mph - N/A   Overcast
7:15 PM 32.0 °F 23.6 °F 30.2 °F 93% 29.95 in 10.0 mi NW 10.4 mph - N/A   Overcast
7:35 PM 32.0 °F 24.8 °F 30.2 °F 93% 29.97 in 10.0 mi NW 8.1 mph - N/A   Overcast
7:55 PM 32.0 °F 24.8 °F 30.2 °F 93% 29.98 in 10.0 mi NW 8.1 mph - N/A   Overcast
8:15 PM 32.0 °F 23.6 °F 30.2 °F 93% 29.99 in 10.0 mi NW 10.4 mph - N/A   Overcast
8:35 PM 32.0 °F 24.2 °F 30.2 °F 93% 30.00 in 10.0 mi WNW 9.2 mph - N/A   Overcast
8:55 PM 32.0 °F 24.2 °F 28.4 °F 87% 30.01 in 10.0 mi WNW 9.2 mph - N/A   Overcast
9:15 PM 32.0 °F 23.6 °F 28.4 °F 87% 30.01 in 10.0 mi NW 10.4 mph - N/A   Overcast
9:35 PM 32.0 °F 24.2 °F 28.4 °F 87% 30.02 in 10.0 mi NW 9.2 mph - N/A   Overcast
9:55 PM 32.0 °F 23.6 °F 28.4 °F 87% 30.03 in 10.0 mi NW 10.4 mph 16.1 mph N/A   Overcast
10:15 PM 32.0 °F 24.2 °F 28.4 °F 87% 30.03 in 10.0 mi NW 9.2 mph - N/A   Overcast
10:35 PM 32.0 °F 23.0 °F 28.4 °F 87% 30.04 in 10.0 mi NW 11.5 mph - N/A   Overcast
10:55 PM 32.0 °F 23.0 °F 28.4 °F 87% 30.04 in 10.0 mi NW 11.5 mph - N/A   Overcast
11:15 PM 32.0 °F 24.8 °F 28.4 °F 87% 30.05 in 10.0 mi NW 8.1 mph - N/A   Overcast
11:35 PM 32.0 °F 23.6 °F 28.4 °F 87% 30.05 in 10.0 mi NW 10.4 mph - N/A   Overcast
11:55 PM 32.0 °F 23.6 °F 28.4 °F 87% 30.05 in 10.0 mi NNW 10.4 mph - N/A   Overcast